Year,Month,Day,Hour,Minute,Value (Times are PST for temperature in C)
2012,05,26,00,00,12.90
2012,05,26,00,01,12.80
2012,05,26,00,02,12.80
2012,05,26,00,03,12.80
2012,05,26,00,04,12.80
2012,05,26,00,05,12.80
2012,05,26,00,07,12.70
2012,05,26,00,08,12.70
2012,05,26,00,09,12.70
2012,05,26,00,10,12.60
2012,05,26,00,11,12.60
2012,05,26,00,12,12.60
2012,05,26,00,13,12.60
2012,05,26,00,14,12.50
2012,05,26,00,15,12.40
2012,05,26,00,16,12.40
2012,05,26,00,18,12.40
2012,05,26,00,19,12.30
2012,05,26,00,20,12.30
2012,05,26,00,21,12.30
2012,05,26,00,22,12.30
2012,05,26,00,23,12.30
2012,05,26,00,24,12.30
2012,05,26,00,25,12.30
2012,05,26,00,26,12.30
2012,05,26,00,27,12.30
2012,05,26,00,28,12.30
2012,05,26,00,29,12.30
2012,05,26,00,30,12.20
2012,05,26,00,32,12.20
2012,05,26,00,33,12.20
2012,05,26,00,35,12.20
2012,05,26,00,36,12.20
2012,05,26,00,37,12.20
2012,05,26,00,38,12.20
2012,05,26,00,39,12.20
2012,05,26,00,40,12.20
2012,05,26,00,41,12.20
2012,05,26,00,42,12.20
2012,05,26,00,43,12.10
2012,05,26,00,44,12.10
2012,05,26,00,45,12.10
2012,05,26,00,46,12.10
2012,05,26,00,47,12.10
2012,05,26,00,49,12.00
2012,05,26,00,50,12.00
2012,05,26,00,51,12.00
2012,05,26,00,52,11.90
2012,05,26,00,53,11.90
2012,05,26,00,54,11.90
2012,05,26,00,55,11.90
2012,05,26,00,56,11.90
2012,05,26,00,57,11.80
2012,05,26,00,59,11.80
2012,05,26,01,01,11.80
2012,05,26,01,02,11.80
2012,05,26,01,03,11.80
2012,05,26,01,04,11.70
2012,05,26,01,05,11.70
2012,05,26,01,06,11.70
2012,05,26,01,07,11.70
2012,05,26,01,08,11.70
2012,05,26,01,09,11.60
2012,05,26,01,10,11.60
2012,05,26,01,11,11.60
2012,05,26,01,12,11.60
2012,05,26,01,14,11.50
2012,05,26,01,15,11.40
2012,05,26,01,16,11.40
2012,05,26,01,17,11.40
2012,05,26,01,18,11.30
2012,05,26,01,19,11.30
2012,05,26,01,20,11.20
2012,05,26,01,21,11.20
2012,05,26,01,22,11.20
2012,05,26,01,23,11.20
2012,05,26,01,24,11.10
2012,05,26,01,25,11.10
2012,05,26,01,27,11.10
2012,05,26,01,28,11.00
2012,05,26,01,29,10.90
2012,05,26,01,30,10.90
2012,05,26,01,31,10.90
2012,05,26,01,32,10.90
2012,05,26,01,33,10.80
2012,05,26,01,34,10.80
2012,05,26,01,35,10.80
2012,05,26,01,36,10.80
2012,05,26,01,37,10.70
2012,05,26,01,38,10.70
2012,05,26,01,39,10.70
2012,05,26,01,40,10.70
2012,05,26,01,41,10.60
2012,05,26,01,42,10.60
2012,05,26,01,43,10.50
2012,05,26,01,44,10.50
2012,05,26,01,45,10.40
2012,05,26,01,46,10.40
2012,05,26,01,47,10.40
2012,05,26,01,48,10.40
2012,05,26,01,49,10.30
2012,05,26,01,50,10.30
2012,05,26,01,51,10.30
2012,05,26,01,52,10.30
2012,05,26,01,53,10.20
2012,05,26,01,54,10.20
2012,05,26,01,55,10.20
2012,05,26,01,56,10.20
2012,05,26,01,57,10.20
2012,05,26,01,59,10.10
2012,05,26,02,01,10.10
2012,05,26,02,02,10.10
2012,05,26,02,03,10.10
2012,05,26,02,04,10.10
2012,05,26,02,05,10.00
2012,05,26,02,06,10.00
2012,05,26,02,07,10.00
2012,05,26,02,08,10.00
2012,05,26,02,09,9.90
2012,05,26,02,10,9.90
2012,05,26,02,11,9.90
2012,05,26,02,12,9.90
2012,05,26,02,13,9.90
2012,05,26,02,14,9.90
2012,05,26,02,15,9.80
2012,05,26,02,16,9.80
2012,05,26,02,17,9.80
2012,05,26,02,19,9.80
2012,05,26,02,20,9.80
2012,05,26,02,21,9.80
2012,05,26,02,22,9.80
2012,05,26,02,23,9.70
2012,05,26,02,25,9.70
2012,05,26,02,26,9.70
2012,05,26,02,27,9.70
2012,05,26,02,28,9.70
2012,05,26,02,30,9.60
2012,05,26,02,31,9.60
2012,05,26,02,32,9.60
2012,05,26,02,33,9.60
2012,05,26,02,34,9.60
2012,05,26,02,35,9.60
2012,05,26,02,36,9.50
2012,05,26,02,38,9.40
2012,05,26,02,39,9.40
2012,05,26,02,40,9.40
2012,05,26,02,41,9.40
2012,05,26,02,42,9.40
2012,05,26,02,44,9.40
2012,05,26,02,45,9.30
2012,05,26,02,46,9.30
2012,05,26,02,47,9.30
2012,05,26,02,48,9.30
2012,05,26,02,49,9.30
2012,05,26,02,50,9.30
2012,05,26,02,51,9.30
2012,05,26,02,52,9.30
2012,05,26,02,53,9.20
2012,05,26,02,54,9.20
2012,05,26,02,55,9.20
2012,05,26,02,56,9.20
2012,05,26,02,57,9.20
2012,05,26,02,58,9.20
2012,05,26,02,59,9.20
2012,05,26,03,01,9.20
2012,05,26,03,02,9.20
2012,05,26,03,03,9.10
2012,05,26,03,04,9.10
2012,05,26,03,05,9.10
2012,05,26,03,06,9.10
2012,05,26,03,07,9.10
2012,05,26,03,08,9.10
2012,05,26,03,09,9.10
2012,05,26,03,10,9.00
2012,05,26,03,11,9.00
2012,05,26,03,12,9.00
2012,05,26,03,13,9.00
2012,05,26,03,15,8.90
2012,05,26,03,16,8.90
2012,05,26,03,17,8.90
2012,05,26,03,19,8.90
2012,05,26,03,20,8.90
2012,05,26,03,21,8.90
2012,05,26,03,22,8.90
2012,05,26,03,23,8.80
2012,05,26,03,24,8.80
2012,05,26,03,25,8.80
2012,05,26,03,26,8.80
2012,05,26,03,27,8.80
2012,05,26,03,28,8.70
2012,05,26,03,29,8.70
2012,05,26,03,30,8.70
2012,05,26,03,31,8.70
2012,05,26,03,32,8.60
2012,05,26,03,33,8.60
2012,05,26,03,34,8.60
2012,05,26,03,35,8.60
2012,05,26,03,36,8.50
2012,05,26,03,37,8.50
2012,05,26,03,38,8.40
2012,05,26,03,39,8.40
2012,05,26,03,40,8.40
2012,05,26,03,41,8.40
2012,05,26,03,43,8.30
2012,05,26,03,44,8.30
2012,05,26,03,45,8.30
2012,05,26,03,47,8.30
2012,05,26,03,48,8.30
2012,05,26,03,49,8.30
2012,05,26,03,51,8.30
2012,05,26,03,52,8.20
2012,05,26,03,53,8.20
2012,05,26,03,54,8.20
2012,05,26,03,55,8.20
2012,05,26,03,56,8.20
2012,05,26,03,57,8.20
2012,05,26,03,58,8.20
2012,05,26,03,59,8.20
2012,05,26,04,02,8.20
2012,05,26,04,03,8.20
2012,05,26,04,04,8.20
2012,05,26,04,05,8.10
2012,05,26,04,06,8.10
2012,05,26,04,07,8.10
2012,05,26,04,08,8.10
2012,05,26,04,09,8.10
2012,05,26,04,10,8.10
2012,05,26,04,11,8.10
2012,05,26,04,12,8.10
2012,05,26,04,13,8.00
2012,05,26,04,14,8.00
2012,05,26,04,15,8.00
2012,05,26,04,16,8.00
2012,05,26,04,17,7.90
2012,05,26,04,18,7.90
2012,05,26,04,19,7.90
2012,05,26,04,20,7.90
2012,05,26,04,21,7.90
2012,05,26,04,22,7.90
2012,05,26,04,23,7.90
2012,05,26,04,24,7.90
2012,05,26,04,25,7.90
2012,05,26,04,26,7.80
2012,05,26,04,27,7.80
2012,05,26,04,28,7.80
2012,05,26,04,29,7.80
2012,05,26,04,30,7.80
2012,05,26,04,31,7.80
2012,05,26,04,32,7.80
2012,05,26,04,33,7.80
2012,05,26,04,34,7.80
2012,05,26,04,35,7.80
2012,05,26,04,36,7.80
2012,05,26,04,37,7.80
2012,05,26,04,38,7.70
2012,05,26,04,39,7.70
2012,05,26,04,40,7.70
2012,05,26,04,41,7.70
2012,05,26,04,42,7.70
2012,05,26,04,43,7.70
2012,05,26,04,44,7.60
2012,05,26,04,45,7.60
2012,05,26,04,46,7.60
2012,05,26,04,47,7.60
2012,05,26,04,48,7.50
2012,05,26,04,49,7.50
2012,05,26,04,50,7.40
2012,05,26,04,51,7.40
2012,05,26,04,52,7.40
2012,05,26,04,53,7.40
2012,05,26,04,54,7.40
2012,05,26,04,55,7.30
2012,05,26,04,56,7.30
2012,05,26,04,57,7.30
2012,05,26,04,58,7.30
2012,05,26,04,59,7.30
2012,05,26,05,01,7.30
2012,05,26,05,02,7.20
2012,05,26,05,03,7.20
2012,05,26,05,04,7.20
2012,05,26,05,05,7.20
2012,05,26,05,06,7.20
2012,05,26,05,07,7.20
2012,05,26,05,08,7.20
2012,05,26,05,09,7.20
2012,05,26,05,10,7.20
2012,05,26,05,11,7.20
2012,05,26,05,12,7.20
2012,05,26,05,13,7.20
2012,05,26,05,14,7.20
2012,05,26,05,15,7.20
2012,05,26,05,16,7.20
2012,05,26,05,17,7.20
2012,05,26,05,18,7.20
2012,05,26,05,19,7.20
2012,05,26,05,20,7.20
2012,05,26,05,21,7.20
2012,05,26,05,22,7.20
2012,05,26,05,23,7.20
2012,05,26,05,24,7.20
2012,05,26,05,25,7.20
2012,05,26,05,26,7.10
2012,05,26,05,27,7.10
2012,05,26,05,28,7.10
2012,05,26,05,29,7.10
2012,05,26,05,30,7.00
2012,05,26,05,31,6.90
2012,05,26,05,32,6.90
2012,05,26,05,33,6.90
2012,05,26,05,34,6.90
2012,05,26,05,35,6.90
2012,05,26,05,36,6.90
2012,05,26,05,37,6.80
2012,05,26,05,38,6.80
2012,05,26,05,39,6.80
2012,05,26,05,40,6.80
2012,05,26,05,41,6.80
2012,05,26,05,42,6.80
2012,05,26,05,43,6.80
2012,05,26,05,44,6.70
2012,05,26,05,45,6.70
2012,05,26,05,46,6.70
2012,05,26,05,47,6.70
2012,05,26,05,48,6.70
2012,05,26,05,49,6.70
2012,05,26,05,50,6.70
2012,05,26,05,51,6.70
2012,05,26,05,52,6.70
2012,05,26,05,53,6.70
2012,05,26,05,54,6.70
2012,05,26,05,55,6.70
2012,05,26,05,56,6.70
2012,05,26,05,57,6.70
2012,05,26,05,58,6.70
2012,05,26,05,59,6.70
2012,05,26,06,01,6.70
2012,05,26,06,02,6.70
2012,05,26,06,03,6.70
2012,05,26,06,04,6.70
2012,05,26,06,05,6.70
2012,05,26,06,06,6.70
2012,05,26,06,07,6.70
2012,05,26,06,08,6.70
2012,05,26,06,09,6.80
2012,05,26,06,10,6.80
2012,05,26,06,11,6.80
2012,05,26,06,12,6.80
2012,05,26,06,13,6.80
2012,05,26,06,14,6.90
2012,05,26,06,15,6.90
2012,05,26,06,16,7.00
2012,05,26,06,17,7.10
2012,05,26,06,18,7.10
2012,05,26,06,19,7.10
2012,05,26,06,20,7.10
2012,05,26,06,21,7.10
2012,05,26,06,22,7.10
2012,05,26,06,23,7.10
2012,05,26,06,24,7.10
2012,05,26,06,25,7.10
2012,05,26,06,26,7.10
2012,05,26,06,27,7.10
2012,05,26,06,28,7.10
2012,05,26,06,29,7.10
2012,05,26,06,30,7.10
2012,05,26,06,31,7.10
2012,05,26,06,32,7.20
2012,05,26,06,33,7.20
2012,05,26,06,34,7.20
2012,05,26,06,35,7.20
2012,05,26,06,36,7.20
2012,05,26,06,37,7.20
2012,05,26,06,38,7.20
2012,05,26,06,39,7.20
2012,05,26,06,40,7.20
2012,05,26,06,41,7.20
2012,05,26,06,42,7.30
2012,05,26,06,43,7.30
2012,05,26,06,44,7.30
2012,05,26,06,45,7.30
2012,05,26,06,46,7.40
2012,05,26,06,47,7.40
2012,05,26,06,48,7.50
2012,05,26,06,49,7.60
2012,05,26,06,50,7.60
2012,05,26,06,51,7.70
2012,05,26,06,52,7.70
2012,05,26,06,53,7.80
2012,05,26,06,54,7.80
2012,05,26,06,55,7.90
2012,05,26,06,56,7.90
2012,05,26,06,57,8.00
2012,05,26,06,58,8.10
2012,05,26,06,59,8.10
2012,05,26,07,01,8.20
2012,05,26,07,02,8.20
2012,05,26,07,03,8.30
2012,05,26,07,04,8.30
2012,05,26,07,05,8.30
2012,05,26,07,06,8.30
2012,05,26,07,07,8.40
2012,05,26,07,08,8.40
2012,05,26,07,09,8.50
2012,05,26,07,10,8.50
2012,05,26,07,11,8.60
2012,05,26,07,12,8.60
2012,05,26,07,13,8.70
2012,05,26,07,14,8.70
2012,05,26,07,15,8.70
2012,05,26,07,16,8.80
2012,05,26,07,17,8.80
2012,05,26,07,19,8.80
2012,05,26,07,21,8.90
2012,05,26,07,22,8.90
2012,05,26,07,23,9.00
2012,05,26,07,25,9.10
2012,05,26,07,26,9.20
2012,05,26,07,27,9.20
2012,05,26,07,29,9.40
2012,05,26,07,30,9.40
2012,05,26,07,32,9.70
2012,05,26,07,33,9.70
2012,05,26,07,34,9.80
2012,05,26,07,35,9.90
2012,05,26,07,36,9.90
2012,05,26,07,37,10.10
2012,05,26,07,38,10.20
2012,05,26,07,39,10.30
2012,05,26,07,40,10.40
2012,05,26,07,41,10.40
2012,05,26,07,42,10.50
2012,05,26,07,44,10.70
2012,05,26,07,45,10.70
2012,05,26,07,46,10.80
2012,05,26,07,48,10.80
2012,05,26,07,49,10.90
2012,05,26,07,50,11.00
2012,05,26,07,51,11.10
2012,05,26,07,52,11.20
2012,05,26,07,53,11.30
2012,05,26,07,54,11.40
2012,05,26,07,55,11.60
2012,05,26,07,56,11.70
2012,05,26,07,57,11.70
2012,05,26,07,58,11.70
2012,05,26,07,59,11.80
2012,05,26,08,02,11.80
2012,05,26,08,03,11.80
2012,05,26,08,04,11.80
2012,05,26,08,05,11.80
2012,05,26,08,06,11.90
2012,05,26,08,07,11.90
2012,05,26,08,08,11.90
2012,05,26,08,09,12.00
2012,05,26,08,10,12.10
2012,05,26,08,11,12.10
2012,05,26,08,20,12.10
2012,05,26,08,21,12.10
2012,05,26,08,22,12.10
2012,05,26,08,23,12.10
2012,05,26,08,24,12.10
2012,05,26,08,26,12.10
2012,05,26,08,27,12.10
2012,05,26,08,28,12.10
2012,05,26,08,30,12.10
2012,05,26,08,32,12.20
2012,05,26,08,33,12.20
2012,05,26,08,35,12.20
2012,05,26,08,36,12.30
2012,05,26,08,38,12.30
2012,05,26,08,39,12.40
2012,05,26,08,40,12.50
2012,05,26,08,42,12.70
2012,05,26,08,43,12.80
2012,05,26,08,44,12.90
2012,05,26,08,45,13.10
2012,05,26,08,47,13.20
2012,05,26,08,48,13.30
2012,05,26,08,49,13.30
2012,05,26,08,50,13.30
2012,05,26,08,52,13.40
2012,05,26,08,54,13.50
2012,05,26,08,55,13.60
2012,05,26,08,57,13.70
2012,05,26,08,58,13.80
2012,05,26,08,59,13.80
2012,05,26,09,03,14.10
2012,05,26,09,04,14.20
2012,05,26,09,05,14.20
2012,05,26,09,06,14.20
2012,05,26,09,07,14.20
2012,05,26,09,08,14.20
2012,05,26,09,10,14.20
2012,05,26,09,12,14.20
2012,05,26,09,13,14.20
2012,05,26,09,14,14.30
2012,05,26,09,15,14.30
2012,05,26,09,17,14.40
2012,05,26,09,18,14.50
2012,05,26,09,19,14.60
2012,05,26,09,21,14.70
2012,05,26,09,23,14.80
2012,05,26,09,25,14.80
2012,05,26,09,26,14.80
2012,05,26,09,27,14.70
2012,05,26,09,29,14.70
2012,05,26,09,30,14.70
2012,05,26,09,31,14.80
2012,05,26,09,32,14.80
2012,05,26,09,33,14.80
2012,05,26,09,35,14.90
2012,05,26,09,36,15.00
2012,05,26,09,37,15.00
2012,05,26,09,38,15.00
2012,05,26,09,39,15.00
2012,05,26,09,40,15.00
2012,05,26,09,42,15.00
2012,05,26,09,44,15.00
2012,05,26,09,45,15.10
2012,05,26,09,47,15.20
2012,05,26,09,48,15.20
2012,05,26,09,49,15.20
2012,05,26,09,51,15.30
2012,05,26,09,53,15.40
2012,05,26,09,55,15.60
2012,05,26,09,56,15.70
2012,05,26,09,57,15.80
2012,05,26,09,59,15.80
2012,05,26,10,01,15.80
2012,05,26,10,03,15.90
2012,05,26,10,05,16.10
2012,05,26,10,07,16.30
2012,05,26,10,08,16.40
2012,05,26,10,10,16.60
2012,05,26,10,11,16.60
2012,05,26,10,12,16.70
2012,05,26,10,14,16.80
2012,05,26,10,15,16.80
2012,05,26,10,16,16.90
2012,05,26,10,18,17.10
2012,05,26,10,19,17.20
2012,05,26,10,21,17.40
2012,05,26,10,22,17.40
2012,05,26,10,23,17.60
2012,05,26,10,25,17.70
2012,05,26,10,27,17.60
2012,05,26,10,28,17.60
2012,05,26,10,30,17.60
2012,05,26,10,31,17.60
2012,05,26,10,32,17.60
2012,05,26,10,33,17.70
2012,05,26,10,34,17.70
2012,05,26,10,35,17.80
2012,05,26,10,36,17.80
2012,05,26,10,37,17.80
2012,05,26,10,38,17.80
2012,05,26,10,39,17.80
2012,05,26,10,40,17.90
2012,05,26,10,41,18.00
2012,05,26,10,42,18.10
2012,05,26,10,43,18.20
2012,05,26,10,44,18.20
2012,05,26,10,45,18.20
2012,05,26,10,46,18.20
2012,05,26,10,47,18.30
2012,05,26,10,48,18.30
2012,05,26,10,49,18.30
2012,05,26,10,50,18.30
2012,05,26,10,51,18.30
2012,05,26,10,52,18.30
2012,05,26,10,53,18.30
2012,05,26,10,54,18.40
2012,05,26,10,55,18.40
2012,05,26,10,56,18.40
2012,05,26,10,57,18.50
2012,05,26,10,58,18.60
2012,05,26,10,59,18.60
2012,05,26,11,00,18.70
2012,05,26,11,03,19.00
2012,05,26,11,04,19.10
2012,05,26,11,05,19.20
2012,05,26,11,06,19.30
2012,05,26,11,07,19.40
2012,05,26,11,08,19.60
2012,05,26,11,09,19.60
2012,05,26,11,10,19.70
2012,05,26,11,11,19.60
2012,05,26,11,12,19.70
2012,05,26,11,13,19.70
2012,05,26,11,14,19.70
2012,05,26,11,15,19.80
2012,05,26,11,16,19.80
2012,05,26,11,17,19.90
2012,05,26,11,18,19.90
2012,05,26,11,19,19.90
2012,05,26,11,20,20.00
2012,05,26,11,21,20.00
2012,05,26,11,22,20.10
2012,05,26,11,23,20.10
2012,05,26,11,24,20.10
2012,05,26,11,25,20.10
2012,05,26,11,26,20.20
2012,05,26,11,27,20.20
2012,05,26,11,28,20.30
2012,05,26,11,29,20.30
2012,05,26,11,30,20.40
2012,05,26,11,31,20.60
2012,05,26,11,32,20.70
2012,05,26,11,33,20.70
2012,05,26,11,34,20.80
2012,05,26,11,35,20.80
2012,05,26,11,36,20.90
2012,05,26,11,37,21.00
2012,05,26,11,38,21.10
2012,05,26,11,39,21.10
2012,05,26,11,40,21.00
2012,05,26,11,41,21.00
2012,05,26,11,42,21.00
2012,05,26,11,43,21.00
2012,05,26,11,44,21.10
2012,05,26,11,45,21.10
2012,05,26,11,46,21.20
2012,05,26,11,47,21.30
2012,05,26,11,48,21.40
2012,05,26,11,49,21.50
2012,05,26,11,50,21.60
2012,05,26,11,51,21.70
2012,05,26,11,52,21.70
2012,05,26,11,53,21.80
2012,05,26,11,54,21.80
2012,05,26,11,55,21.80
2012,05,26,11,56,21.90
2012,05,26,11,57,22.00
2012,05,26,11,58,22.10
2012,05,26,11,59,22.20
2012,05,26,12,00,22.30
2012,05,26,12,03,22.70
2012,05,26,12,04,22.80
2012,05,26,12,05,22.90
2012,05,26,12,06,22.90
2012,05,26,12,07,22.90
2012,05,26,12,08,22.90
2012,05,26,12,09,22.90
2012,05,26,12,10,22.90
2012,05,26,12,11,22.90
2012,05,26,12,12,22.90
2012,05,26,12,13,22.90
2012,05,26,12,14,22.90
2012,05,26,12,15,22.90
2012,05,26,12,16,22.90
2012,05,26,12,17,22.90
2012,05,26,12,18,22.90
2012,05,26,12,19,23.00
2012,05,26,12,20,23.10
2012,05,26,12,21,23.20
2012,05,26,12,22,23.30
2012,05,26,12,23,23.30
2012,05,26,12,24,23.30
2012,05,26,12,25,23.30
2012,05,26,12,26,23.40
2012,05,26,12,27,23.40
2012,05,26,12,28,23.40
2012,05,26,12,29,23.40
2012,05,26,12,30,23.40
2012,05,26,12,31,23.40
2012,05,26,12,32,23.50
2012,05,26,12,33,23.60
2012,05,26,12,34,23.60
2012,05,26,12,35,23.70
2012,05,26,12,36,23.70
2012,05,26,12,37,23.70
2012,05,26,12,38,23.70
2012,05,26,12,39,23.70
2012,05,26,12,40,23.70
2012,05,26,12,41,23.70
2012,05,26,12,42,23.70
2012,05,26,12,43,23.80
2012,05,26,12,44,23.80
2012,05,26,12,45,23.90
2012,05,26,12,46,23.90
2012,05,26,12,47,23.90
2012,05,26,12,48,24.00
2012,05,26,12,49,24.10
2012,05,26,12,50,24.10
2012,05,26,12,51,24.10
2012,05,26,12,52,24.20
2012,05,26,12,53,24.20
2012,05,26,12,54,24.30
2012,05,26,12,55,24.30
2012,05,26,12,56,24.40
2012,05,26,12,57,24.40
2012,05,26,12,58,24.40
2012,05,26,12,59,24.40
2012,05,26,13,00,24.40
2012,05,26,13,03,24.40
2012,05,26,13,04,24.40
2012,05,26,13,05,24.40
2012,05,26,13,06,24.30
2012,05,26,13,07,24.20
2012,05,26,13,08,24.20
2012,05,26,13,09,24.20
2012,05,26,13,10,24.20
2012,05,26,13,11,24.20
2012,05,26,13,12,24.20
2012,05,26,13,13,24.20
2012,05,26,13,14,24.30
2012,05,26,13,15,24.30
2012,05,26,13,16,24.30
2012,05,26,13,17,24.20
2012,05,26,13,18,24.20
2012,05,26,13,19,24.20
2012,05,26,13,20,24.20
2012,05,26,13,21,24.20
2012,05,26,13,22,24.20
2012,05,26,13,23,24.20
2012,05,26,13,24,24.20
2012,05,26,13,25,24.10
2012,05,26,13,26,24.10
2012,05,26,13,27,24.10
2012,05,26,13,28,24.10
2012,05,26,13,29,24.10
2012,05,26,13,30,24.10
2012,05,26,13,31,24.20
2012,05,26,13,32,24.30
2012,05,26,13,33,24.40
2012,05,26,13,34,24.50
2012,05,26,13,35,24.60
2012,05,26,13,36,24.60
2012,05,26,13,37,24.70
2012,05,26,13,38,24.80
2012,05,26,13,40,24.90
2012,05,26,13,41,24.90
2012,05,26,13,42,25.00
2012,05,26,13,43,25.10
2012,05,26,13,45,25.20
2012,05,26,13,46,25.20
2012,05,26,13,48,25.30
2012,05,26,13,50,25.30
2012,05,26,13,51,25.30
2012,05,26,13,52,25.30
2012,05,26,13,54,25.30
2012,05,26,13,55,25.40
2012,05,26,13,57,25.40
2012,05,26,13,58,25.60
2012,05,26,13,59,25.60
2012,05,26,14,00,25.70
2012,05,26,14,04,25.90
2012,05,26,14,06,25.90
2012,05,26,14,07,25.90
2012,05,26,14,08,25.90
2012,05,26,14,10,25.80
2012,05,26,14,11,25.80
2012,05,26,14,12,25.80
2012,05,26,14,13,25.80
2012,05,26,14,14,25.70
2012,05,26,14,15,25.70
2012,05,26,14,16,25.60
2012,05,26,14,17,25.60
2012,05,26,14,18,25.60
2012,05,26,14,19,25.70
2012,05,26,14,20,25.80
2012,05,26,14,21,25.90
2012,05,26,14,22,25.90
2012,05,26,14,23,25.90
2012,05,26,14,24,25.80
2012,05,26,14,25,25.80
2012,05,26,14,26,25.80
2012,05,26,14,27,25.90
2012,05,26,14,28,25.90
2012,05,26,14,29,25.90
2012,05,26,14,30,25.90
2012,05,26,14,31,25.90
2012,05,26,14,32,25.90
2012,05,26,14,33,25.90
2012,05,26,14,34,25.80
2012,05,26,14,35,25.90
2012,05,26,14,36,25.90
2012,05,26,14,37,25.90
2012,05,26,14,38,26.00
2012,05,26,14,39,26.10
2012,05,26,14,40,26.10
2012,05,26,14,41,25.90
2012,05,26,14,42,25.90
2012,05,26,14,43,25.90
2012,05,26,14,44,25.90
2012,05,26,14,45,25.80
2012,05,26,14,46,25.80
2012,05,26,14,47,25.70
2012,05,26,14,48,25.70
2012,05,26,14,49,25.70
2012,05,26,14,50,25.60
2012,05,26,14,51,25.60
2012,05,26,14,52,25.60
2012,05,26,14,53,25.60
2012,05,26,14,54,25.60
2012,05,26,14,55,25.70
2012,05,26,14,56,25.70
2012,05,26,14,57,25.70
2012,05,26,14,58,25.70
2012,05,26,14,59,25.70
2012,05,26,15,00,25.60
2012,05,26,15,01,25.50
2012,05,26,15,03,25.50
2012,05,26,15,04,25.40
2012,05,26,15,05,25.50
2012,05,26,15,06,25.60
2012,05,26,15,07,25.70
2012,05,26,15,08,25.70
2012,05,26,15,09,25.70
2012,05,26,15,10,25.80
2012,05,26,15,11,25.90
2012,05,26,15,12,25.90
2012,05,26,15,13,25.90
2012,05,26,15,14,25.90
2012,05,26,15,15,25.90
2012,05,26,15,16,25.90
2012,05,26,15,17,25.90
2012,05,26,15,18,25.90
2012,05,26,15,19,25.90
2012,05,26,15,20,26.00
2012,05,26,15,21,25.90
2012,05,26,15,22,25.90
2012,05,26,15,23,25.80
2012,05,26,15,24,25.70
2012,05,26,15,25,25.70
2012,05,26,15,26,25.70
2012,05,26,15,27,25.60
2012,05,26,15,28,25.60
2012,05,26,15,29,25.50
2012,05,26,15,30,25.50
2012,05,26,15,31,25.50
2012,05,26,15,32,25.60
2012,05,26,15,33,25.60
2012,05,26,15,34,25.60
2012,05,26,15,35,25.60
2012,05,26,15,36,25.60
2012,05,26,15,37,25.70
2012,05,26,15,38,25.70
2012,05,26,15,39,25.70
2012,05,26,15,40,25.80
2012,05,26,15,41,25.80
2012,05,26,15,42,25.80
2012,05,26,15,43,25.80
2012,05,26,15,44,25.80
2012,05,26,15,45,25.80
2012,05,26,15,46,25.80
2012,05,26,15,47,25.90
2012,05,26,15,48,25.80
2012,05,26,15,49,25.80
2012,05,26,15,50,25.60
2012,05,26,15,51,25.40
2012,05,26,15,52,25.30
2012,05,26,15,53,25.20
2012,05,26,15,54,25.10
2012,05,26,15,55,25.10
2012,05,26,15,56,24.90
2012,05,26,15,57,24.90
2012,05,26,15,58,24.90
2012,05,26,15,59,24.90
2012,05,26,16,00,24.80
2012,05,26,16,03,24.80
2012,05,26,16,04,24.90
2012,05,26,16,05,24.90
2012,05,26,16,06,24.90
2012,05,26,16,07,25.00
2012,05,26,16,08,25.10
2012,05,26,16,09,25.10
2012,05,26,16,10,25.10
2012,05,26,16,11,25.20
2012,05,26,16,12,25.20
2012,05,26,16,13,25.30
2012,05,26,16,14,25.30
2012,05,26,16,15,25.40
2012,05,26,16,16,25.50
2012,05,26,16,17,25.60
2012,05,26,16,18,25.60
2012,05,26,16,19,25.60
2012,05,26,16,20,25.60
2012,05,26,16,21,25.60
2012,05,26,16,22,25.60
2012,05,26,16,23,25.60
2012,05,26,16,24,25.60
2012,05,26,16,25,25.50
2012,05,26,16,26,25.40
2012,05,26,16,27,25.40
2012,05,26,16,28,25.40
2012,05,26,16,29,25.40
2012,05,26,16,30,25.30
2012,05,26,16,31,25.30
2012,05,26,16,32,25.20
2012,05,26,16,33,25.20
2012,05,26,16,34,25.10
2012,05,26,16,35,25.00
2012,05,26,16,36,25.00
2012,05,26,16,37,24.90
2012,05,26,16,38,24.90
2012,05,26,16,39,24.90
2012,05,26,16,40,24.90
2012,05,26,16,41,24.90
2012,05,26,16,42,24.90
2012,05,26,16,43,24.90
2012,05,26,16,44,25.00
2012,05,26,16,45,25.10
2012,05,26,16,46,25.10
2012,05,26,16,47,25.10
2012,05,26,16,48,25.20
2012,05,26,16,49,25.20
2012,05,26,16,50,25.30
2012,05,26,16,51,25.30
2012,05,26,16,52,25.40
2012,05,26,16,53,25.40
2012,05,26,16,54,25.40
2012,05,26,16,55,25.40
2012,05,26,16,56,25.50
2012,05,26,16,57,25.50
2012,05,26,16,58,25.40
2012,05,26,16,59,25.30
2012,05,26,17,00,25.30
2012,05,26,17,01,25.30
2012,05,26,17,03,25.30
2012,05,26,17,05,25.40
2012,05,26,17,06,25.40
2012,05,26,17,07,25.30
2012,05,26,17,08,25.30
2012,05,26,17,09,25.20
2012,05,26,17,11,25.20
2012,05,26,17,13,25.10
2012,05,26,17,15,24.90
2012,05,26,17,16,24.80
2012,05,26,17,18,24.70
2012,05,26,17,19,24.80
2012,05,26,17,20,24.80
2012,05,26,17,21,24.80
2012,05,26,17,23,24.70
2012,05,26,17,24,24.70
2012,05,26,17,25,24.70
2012,05,26,17,26,24.70
2012,05,26,17,28,24.70
2012,05,26,17,29,24.70
2012,05,26,17,31,24.70
2012,05,26,17,32,24.70
2012,05,26,17,33,24.70
2012,05,26,17,34,24.70
2012,05,26,17,35,24.70
2012,05,26,17,36,24.70
2012,05,26,17,38,24.70
2012,05,26,17,39,24.60
2012,05,26,17,40,24.50
2012,05,26,17,41,24.40
2012,05,26,17,42,24.30
2012,05,26,17,43,24.30
2012,05,26,17,45,24.20
2012,05,26,17,47,24.10
2012,05,26,17,48,24.00
2012,05,26,17,49,23.90
2012,05,26,17,51,23.70
2012,05,26,17,52,23.70
2012,05,26,17,53,23.60
2012,05,26,17,54,23.50
2012,05,26,17,55,23.40
2012,05,26,17,56,23.30
2012,05,26,17,58,23.20
2012,05,26,17,59,23.10
2012,05,26,18,00,23.10
2012,05,26,18,01,23.10
2012,05,26,18,02,23.20
2012,05,26,18,04,23.20
2012,05,26,18,06,23.10
2012,05,26,18,08,23.10
2012,05,26,18,09,23.00
2012,05,26,18,10,22.90
2012,05,26,18,11,22.70
2012,05,26,18,12,22.60
2012,05,26,18,13,22.40
2012,05,26,18,14,22.40
2012,05,26,18,15,22.40
2012,05,26,18,16,22.30
2012,05,26,18,17,22.30
2012,05,26,18,18,22.20
2012,05,26,18,19,22.20
2012,05,26,18,20,22.20
2012,05,26,18,21,22.10
2012,05,26,18,22,22.00
2012,05,26,18,23,21.90
2012,05,26,18,24,21.80
2012,05,26,18,25,21.80
2012,05,26,18,26,21.80
2012,05,26,18,27,21.70
2012,05,26,18,28,21.60
2012,05,26,18,29,21.60
2012,05,26,18,30,21.60
2012,05,26,18,31,21.60
2012,05,26,18,32,21.50
2012,05,26,18,33,21.40
2012,05,26,18,34,21.40
2012,05,26,18,35,21.40
2012,05,26,18,36,21.30
2012,05,26,18,37,21.30
2012,05,26,18,38,21.30
2012,05,26,18,39,21.30
2012,05,26,18,40,21.30
2012,05,26,18,41,21.30
2012,05,26,18,42,21.30
2012,05,26,18,43,21.20
2012,05,26,18,44,21.10
2012,05,26,18,45,20.90
2012,05,26,18,46,20.90
2012,05,26,18,47,20.90
2012,05,26,18,48,20.80
2012,05,26,18,49,20.80
2012,05,26,18,50,20.80
2012,05,26,18,51,20.80
2012,05,26,18,52,20.70
2012,05,26,18,53,20.70
2012,05,26,18,54,20.70
2012,05,26,18,55,20.60
2012,05,26,18,56,20.70
2012,05,26,18,57,20.70
2012,05,26,18,58,20.80
2012,05,26,18,59,20.80
2012,05,26,19,00,20.80
2012,05,26,19,01,20.80
2012,05,26,19,03,20.80
2012,05,26,19,04,20.80
2012,05,26,19,05,20.80
2012,05,26,19,06,20.70
2012,05,26,19,07,20.70
2012,05,26,19,08,20.60
2012,05,26,19,09,20.50
2012,05,26,19,10,20.40
2012,05,26,19,11,20.40
2012,05,26,19,12,20.30
2012,05,26,19,13,20.30
2012,05,26,19,14,20.20
2012,05,26,19,15,20.20
2012,05,26,19,16,20.10
2012,05,26,19,17,20.10
2012,05,26,19,18,20.00
2012,05,26,19,19,19.90
2012,05,26,19,20,19.80
2012,05,26,19,21,19.80
2012,05,26,19,22,19.70
2012,05,26,19,23,19.60
2012,05,26,19,24,19.60
2012,05,26,19,25,19.60
2012,05,26,19,26,19.60
2012,05,26,19,27,19.60
2012,05,26,19,28,19.60
2012,05,26,19,29,19.70
2012,05,26,19,30,19.60
2012,05,26,19,31,19.60
2012,05,26,19,32,19.50
2012,05,26,19,34,19.30